This demonstration page uses our WeatherBlox Daily Observations layout. Learn more.

Left ArrowRight Arrow

39.12711, -84.51439

Hourly Observations for October 16, 2016

Temp ( °F °C ) Dew Point ( °F °C ) Humidity (%) Winds ( mph kmh ) Pressure ( in mb ) Visibility ( mi km ) Precip ( " mm )
12:07 am 00:07 Clear with Fog 57 13.9 57 13.9 100 100 Calm 30.12 1020 0 0 0.00 0.00
12:17 am 00:17 Clear with Mist and Fog 56 13.3 56 13.3 100 100 Calm 30.12 1020 1 2 0.00 0.00
12:22 am 00:22 Clear with Mist and Fog 57 14 57 14 100 100 Calm 30.12 1020 3 5 0.00 0.00
12:26 am 00:26 Clear with Mist and Fog 57 14 57 14 100 100 Calm 30.12 1020 1 1 0.00 0.00
12:34 am 00:34 Mostly Cloudy with Fog 57 14 57 14 100 100 Calm 30.12 1020 1 1 0.00 0.00
12:53 am 00:53 Mostly Clear with Mist and Fog 57 13.9 57 13.9 100 100 Calm 30.11 1020 2 2 0.00 0.00
12:55 am 00:55 Mostly Clear with Mist and Fog 58 14.4 58 14.4 100 100 Calm 30.12 1020 3 5 0.00 0.00
1:09 am 01:09 Clear with Mist and Fog 55 12.8 55 12.8 100 100 Calm 30.12 1020 2 3 0.00 0.00
1:23 am 01:23 Clear with Mist and Fog 56 13.3 56 13.3 100 100 Calm 30.12 1020 3 5 0.00 0.00
1:33 am 01:33 Clear with Mist and Fog 56 13.3 56 13.3 100 100 Calm 30.12 1020 2 3 0.00 0.00
1:53 am 01:53 Clear with Mist and Fog 57 13.9 57 13.9 100 100 Calm 30.12 1020 2 3 0.00 0.00
2:09 am 02:09 Clear with Mist and Fog 57 13.9 57 13.9 100 100 Calm 30.12 1020 2 2 0.00 0.00
2:13 am 02:13 Clear with Mist and Fog 57 13.9 57 13.9 100 100 Calm 30.12 1020 3 5 0.00 0.00
2:25 am 02:25 Mostly Cloudy with Mist and Fog 56 13.3 56 13.3 100 100 Calm 30.12 1020 1 2 0.00 0.00
2:32 am 02:32 Mostly Cloudy with Fog 55 13 55 13 100 100 Calm 30.12 1020 1 1 0.00 0.00
2:38 am 02:38 Mostly Clear with Mist and Fog 55 13 55 13 100 100 Calm 30.12 1020 1 2 0.00 0.00
2:41 am 02:41 Mostly Cloudy with Mist and Fog 55 12.8 55 12.8 100 100 Calm 30.12 1020 1 1 0.00 0.00
2:53 am 02:53 Mostly Cloudy with Mist and Fog 56 13.3 56 13.3 100 100 Calm 30.11 1020 1 1 0.00 0.00
2:55 am 02:55 Mostly Clear with Mist and Fog 56 13.3 56 13.3 100 100 Calm 30.12 1020 1 2 0.00 0.00
3:19 am 03:19 Clear with Fog 54 12.2 54 12.2 100 100 Calm 30.12 1020 0 0 0.00 0.00
3:30 am 03:30 Clear with Mist and Fog 55 13 55 13 100 100 Calm 30.12 1020 1 2 0.00 0.00
3:36 am 03:36 Clear with Mist and Fog 55 13 55 13 100 100 Calm 30.12 1020 3 5 0.00 0.00
3:49 am 03:49 Clear with Mist and Fog 54 12 54 12 100 100 Calm 30.12 1020 2 3 0.00 0.00
3:53 am 03:53 Clear with Fog 55 12.8 55 12.8 100 100 Calm 30.11 1020 1 1 0.00 0.00
4:24 am 04:24 Clear with Mist and Fog 55 12.8 55 12.8 100 100 Calm 30.12 1020 2 3 0.00 0.00
4:35 am 04:35 Clear with Fog 55 12.8 55 12.8 100 100 Calm 30.12 1020 0 0 0.00 0.00
4:53 am 04:53 Clear with Fog 56 13.3 56 13.3 100 100 Calm 30.11 1020 0 0 0.00 0.00
5:08 am 05:08 Clear with Fog 54 12.2 54 12.2 100 100 Calm 30.12 1020 1 1 0.00 0.00
5:29 am 05:29 Clear with Mist and Fog 54 12.2 54 12.2 100 100 Calm 30.12 1020 1 2 0.00 0.00
5:42 am 05:42 Partly Cloudy with Mist and Fog 55 12.8 55 12.8 100 100 Calm 30.12 1020 3 5 0.00 0.00
5:53 am 05:53 Mostly Cloudy with Mist and Fog 56 13.3 56 13.3 100 100 Calm 30.12 1020 4 6 0.00 0.00
6:53 am 06:53 Clear 55 12.8 55 12.8 100 100 Calm 30.12 1020 10 16 0.00 0.00
7:53 am 07:53 Sunny 59 15 57 13.9 93 93 SW 5 7 30.12 1020 10 16 0.00 0.00
8:53 am 08:53 Sunny 61 16.1 59 15 93 93 S 5 7 30.12 1020 10 16 0.00 0.00
9:53 am 09:53 Sunny 66 18.9 61 16.1 84 84 SSW 10 17 30.12 1020 10 16 0.00 0.00
10:53 am 10:53 Sunny 71 21.7 62 16.7 73 73 SSW 10 17 30.11 1020 10 16 0.00 0.00
11:53 am 11:53 Sunny 74 23.3 62 16.7 67 67 SSW 14 22 30.10 1019 10 16 0.00 0.00
12:53 pm 12:53 Sunny 77 25 62 16.7 60 60 SW 15 24 30.08 1019 10 16 0.00 0.00
1:53 pm 13:53 Sunny 79 26.1 62 16.7 56 56 SSW 16 26 30.05 1018 10 16 0.00 0.00
2:53 pm 14:53 Partly Cloudy 79 26.1 61 16.1 54 54 SW 14 22 30.02 1017 10 16 0.00 0.00
3:53 pm 15:53 Partly Cloudy 81 27.2 61 16.1 51 51 SW 14 22 30.01 1016 10 16 0.00 0.00
4:53 pm 16:53 Partly Cloudy 77 25 61 16.1 58 58 SSW 9 15 30.00 1016 10 16 0.00 0.00
5:53 pm 17:53 Partly Cloudy 75 23.9 61 16.1 62 62 SSW 8 13 29.98 1015 10 16 0.00 0.00
6:53 pm 18:53 Mostly Sunny 72 22.2 62 16.7 71 71 S 5 7 29.98 1015 10 16 0.00 0.00
7:53 pm 19:53 Clear 68 20 64 17.8 87 87 Calm 29.99 1016 10 16 0.00 0.00
8:53 pm 20:53 Mostly Cloudy 67 19.4 63 17.2 87 87 Calm 30.00 1016 10 16 0.00 0.00
9:53 pm 21:53 Mostly Cloudy 64 17.8 62 16.7 93 93 SW 7 11 29.99 1016 10 16 0.00 0.00
10:53 pm 22:53 Cloudy 68 20 62 16.7 81 81 SSW 8 13 29.99 1016 10 16 0.00 0.00
11:53 pm 23:53 Partly Cloudy 67 19.4 61 16.1 81 81 S 8 13 29.99 1016 10 16 0.00 0.00

Powered by AerisWeather